Location: Ajisawe
(8.4333°N, 4.3833°E)
Time: 14:17:50
(UTC+00:00)

Courier 1B Rocket - Pass Details

Date: 27 April 2021
Orbit: 920 x 1202 km, 28.2° (Epoch: 07 May)

Event Time Altitude Azimuth Distance (km) Brightness Sun altitude
Rises 11:41:26 0° 220° (SW) 3,748 8.0 84.4°
Reaches altitude 10° 11:44:31 10° 210° (SSW) 2,751 7.5 84.3°
Maximum altitude 11:50:14 31° 150° (SSE) 1,612 6.6 83.9°
Drops below altitude 10° 11:55:42 10° 90° (E) 2,626 7.4 83.2°
Sets 11:58:34 0° 80° (E) 3,553 7.9 82.8°
